[[{"header":{"parameterUnit":"m.s-1","parameterCategory":1,"la1":30.2991,"la2":30.254,"lo1":-89.0895,"lo2":-89.0444,"dy":0.0017,"dx":0.0017,"nx":28,"ny":28,"refTime":"2024-08-13T03:00:00:Z","depth":0,"parameterNumber":2,"parameterNumberName":"U-component_of_WINDS"},"data":[0,0,0,0,0,0,0,0,0,0,0,0,0,0,0,0,0,0,0,0,0,0,0,0,0,0,0,0,0,0,0,0,0,0,0,0,0,0,0,0,0,0,0,0,0,0,0,0,0,0,0,0,0,0,0,0,0,0,1.5338,1.5338,0,1.5331,1.5331,1.5331,1.5291,1.529,1.5289,1.5288,1.5282,1.5283,1.5284,0,0,0,0,0,0,0,0,0,0,0,0,0,1.5317,1.5318,1.5338,1.5338,1.5338,1.5331,1.5331,1.5331,1.5291,1.529,1.5288,1.5287,1.5282,1.5283,1.5284,0,0,0,0,0,0,0,0,0,0,0,0,0,1.532,1.5318,1.5338,1.5317,1.5315,1.5331,1.5331,1.5331,1.5291,1.529,1.5288,1.5287,1.5282,1.5283,1.5284,1.5321,0,0,1.5287,1.5288,0,0,0,0,0,0,0,0,1.532,1.5321,1.532,1.5318,1.5316,1.531,1.5322,1.5328,1.5291,1.53,1.5288,1.5286,1.5293,1.5293,1.5295,1.532,1.532,1.5287,1.5288,1.5289,1.5289,0,0,0,0,0,0,0,1.532,1.5321,1.5335,1.532,1.5318,1.5308,1.5307,1.5323,1.5305,1.5299,1.5296,1.5296,1.5291,1.5294,1.5295,1.532,1.5287,1.5288,1.5289,1.529,1.5377,1.5379,0,0,0,0,0,0,1.5322,1.5321,1.5335,1.5335,1.5314,1.531,1.5308,1.5314,1.5304,1.5302,1.5297,1.5294,1.5293,1.5293,1.5294,1.5337,1.5289,1.529,1.529,1.5376,1.5378,1.5379,0,0,0,0,0,0,1.5322,1.5324,1.5336,1.5327,1.5328,1.5312,1.5318,1.5314,1.5317,1.5303,1.53,1.5303,1.5292,1.5293,1.5315,1.5337,1.529,1.5291,1.5374,1.5376,1.5378,1.5424,0,0,0,0,0,0,1.5322,1.5324,1.5337,1.5328,1.5329,1.5356,1.5319,1.5315,1.5319,1.5314,1.5308,1.5305,1.529,1.5313,1.5316,1.5337,1.5292,1.5372,1.5375,1.5378,1.542,1.5428,1.5434,0,0,0,0,0,1.5321,1.535,1.5338,1.534,1.5345,1.5357,1.5357,1.534,1.5321,1.5334,1.5326,1.5305,1.5334,1.5316,1.5318,1.5341,1.537,1.5374,1.5377,1.5417,1.5426,1.5434,0,0,0,0,0,0,1.5362,1.5348,1.5335,1.5362,1.5361,1.535,1.5366,1.535,1.5354,1.535,1.5329,1.5327,1.5353,1.5349,1.5329,1.5377,1.5349,1.5353,1.5378,1.5386,1.5393,1.5393,1.5293,0,0,0,0,0,1.5375,1.5385,1.5373,1.5398,1.5398,1.5383,1.5387,1.5374,1.5372,1.5372,1.5365,1.5364,1.5374,1.538,1.5387,1.542,1.5419,1.5437,1.5444,1.5449,1.5453,1.5471,1.548,1.5391,1.5391,1.5391,0,0,1.54,1.5394,1.5402,1.5406,1.5404,1.5416,1.5382,1.5396,1.5406,1.5374,1.5394,1.539,1.5388,1.5416,1.5428,1.5413,1.5477,1.5454,1.5458,1.5459,1.5476,1.5484,1.5492,1.5394,1.5393,1.5393,0,0,1.5452,1.5448,1.5469,1.5468,1.5465,1.5455,1.546,1.5453,1.5448,1.5469,1.5445,1.5457,1.5472,1.5472,1.5475,1.553,1.5511,1.5533,1.5568,1.5586,1.5593,1.5599,1.5619,1.5627,1.5537,1.5537,1.5537,0,1.5484,1.5501,1.5482,1.5498,1.5501,1.5474,1.5495,1.5495,1.5495,1.5499,1.5483,1.5503,1.55,1.5528,1.5542,1.5544,1.555,1.5533,1.5593,1.5599,1.5605,1.5624,1.5631,1.554,1.5539,1.5539,1.5539,0,1.5541,1.5553,1.557,1.5572,1.5577,1.5596,1.558,1.5588,1.5575,1.5567,1.5589,1.5585,1.5592,1.5598,1.5585,1.5625,1.5616,1.5597,1.5568,1.5616,1.5634,1.5641,1.5544,1.5543,1.5542,1.5541,0,0,1.5617,1.5609,1.5615,1.5616,1.5612,1.5622,1.5641,1.5647,1.5655,1.5656,1.5672,1.5687,1.567,1.5673,1.566,1.5676,1.5721,1.5655,1.5655,1.5668,1.5766,1.578,1.5788,1.5709,1.571,1.5712,1.5766,0,1.5668,1.5698,1.5682,1.5715,1.5727,1.5702,1.5718,1.5718,1.5712,1.5722,1.5715,1.5726,1.5703,1.5704,1.5719,1.5712,1.574,1.5708,1.5724,1.5725,1.5725,1.5797,1.5812,1.5863,1.5773,1.5774,1.5775,0,1.573,1.5735,1.5769,1.5764,1.5768,1.5783,1.5789,1.5799,1.5799,1.5793,1.5797,1.5781,1.58,1.5772,1.5799,1.5777,1.5783,1.5781,1.5783,1.5783,1.5752,1.58,1.5879,1.5887,1.5785,1.5784,1.5783,0,1.5783,1.5798,1.582,1.5822,1.5817,1.5828,1.5827,1.5825,1.5831,1.5836,1.584,1.5848,1.5852,1.5859,1.5846,1.5827,1.5875,1.5845,1.5871,1.5871,1.5881,1.5881,1.5963,1.5886,1.5886,1.5885,1.5885,0,1.5841,1.5863,1.5844,1.5858,1.5882,1.5865,1.589,1.5886,1.5885,1.5899,1.5878,1.5891,1.5874,1.5885,1.5876,1.59,1.5902,1.5898,1.5895,1.59,1.59,1.5903,1.5899,1.5888,1.5887,1.5887,1.5886,0,1.5903,1.5892,1.5915,1.5909,1.5908,1.5926,1.5921,1.5935,1.5928,1.5945,1.5948,1.5937,1.595,1.5938,1.595,1.5944,1.5976,1.5968,1.5976,1.5974,1.6,1.5998,1.6086,1.6097,1.6013,1.6014,1.6015,0,1.5941,1.5957,1.5953,1.5961,1.5961,1.5973,1.5979,1.5963,1.5971,1.5973,1.5986,1.5998,1.6006,1.6028,1.6021,1.6031,1.6023,1.6054,1.6025,1.6029,1.6024,1.6023,1.6025,1.6059,1.606,1.6061,1.6062,0,1.6009,1.6003,1.6012,1.602,1.6027,1.6033,1.6037,1.6044,1.6028,1.6038,1.6051,1.6057,1.6071,1.6082,1.609,1.609,1.6074,1.6071,1.6078,1.6082,1.6086,1.6085,1.5992,1.6069,1.6068,1.6068,1.6067,1.6067,1.606,1.6074,1.6074,1.6085,1.6087,1.6091,1.6103,1.6098,1.6109,1.6118,1.6109,1.6125,1.6127,1.6136,1.6138,1.6151,1.6138,1.6147,1.6149,1.6152,1.6156,1.6085,1.6152,1.6152,1.6152,1.6151,1.6151,0,1.6127,1.6126,1.6137,1.6143,1.6153,1.6137,1.6141,1.615,1.6164,1.6167,1.6176,1.6192,1.6204,1.6199,1.621,1.6221,1.6214,1.6225,1.6223,1.6224,1.6166,1.616,1.623,1.623,1.623,1.623,1.623,1.623,1.6163,1.6186,1.618,1.6205,1.6204,1.6219,1.6223,1.6228,1.623,1.6248,1.6258,1.6255,1.6255,1.6266,1.6277,1.6275,1.628,1.6293,1.6289,1.6235,1.6228,1.622,1.6214,1.6294,1.6295,1.6345,1.6346,1.6346]},{"header":{"parameterUnit":"m.s-1","parameterCategory":1,"la1":30.2991,"la2":30.254,"lo1":-89.0895,"lo2":-89.0444,"dy":0.0017,"dx":0.0017,"nx":28,"ny":28,"refTime":"2024-08-13T03:00:00:Z","depth":0,"parameterNumber":3,"parameterNumberName":"V-component_of_WINDS"},"data":[0,0,0,0,0,0,0,0,0,0,0,0,0,0,0,0,0,0,0,0,0,0,0,0,0,0,0,0,0,0,0,0,0,0,0,0,0,0,0,0,0,0,0,0,0,0,0,0,0,0,0,0,0,0,0,0,0,0,-0.6901,-0.6902,0,-0.6921,-0.6921,-0.6921,-0.6927,-0.6927,-0.6927,-0.6927,-0.6947,-0.6948,-0.6949,0,0,0,0,0,0,0,0,0,0,0,0,0,-0.6871,-0.6872,-0.6901,-0.6902,-0.6902,-0.6921,-0.6921,-0.6921,-0.6927,-0.6927,-0.6927,-0.6927,-0.6947,-0.6948,-0.6949,0,0,0,0,0,0,0,0,0,0,0,0,0,-0.6887,-0.6872,-0.6901,-0.6907,-0.6908,-0.6921,-0.6921,-0.6922,-0.6927,-0.6927,-0.6927,-0.6927,-0.6947,-0.6948,-0.6949,-0.6958,0,0,-0.6952,-0.6952,0,0,0,0,0,0,0,0,-0.6886,-0.6888,-0.6906,-0.6907,-0.6908,-0.6922,-0.6918,-0.6934,-0.6927,-0.692,-0.6927,-0.6927,-0.6939,-0.6941,-0.6944,-0.6958,-0.6959,-0.6952,-0.6952,-0.6953,-0.6953,0,0,0,0,0,0,0,-0.6885,-0.6887,-0.6909,-0.6906,-0.6907,-0.6909,-0.6911,-0.6921,-0.693,-0.6921,-0.6921,-0.6923,-0.6939,-0.6944,-0.6945,-0.696,-0.6952,-0.6953,-0.6953,-0.6953,-0.6984,-0.6985,0,0,0,0,0,0,-0.6883,-0.6886,-0.6909,-0.691,-0.6896,-0.691,-0.6912,-0.6917,-0.693,-0.6932,-0.6923,-0.6924,-0.6942,-0.6944,-0.6946,-0.6958,-0.6953,-0.6954,-0.6954,-0.6984,-0.6984,-0.6985,0,0,0,0,0,0,-0.6882,-0.6884,-0.6908,-0.6898,-0.6901,-0.6911,-0.6916,-0.6918,-0.6922,-0.6932,-0.6934,-0.6926,-0.6942,-0.6944,-0.6955,-0.6959,-0.6954,-0.6955,-0.6984,-0.6984,-0.6985,-0.6983,0,0,0,0,0,0,-0.6881,-0.6884,-0.6887,-0.6898,-0.6902,-0.6916,-0.6916,-0.6918,-0.6924,-0.6924,-0.6935,-0.6937,-0.6942,-0.6954,-0.6956,-0.696,-0.6956,-0.6984,-0.6984,-0.6984,-0.6983,-0.6983,-0.6984,0,0,0,0,0,-0.688,-0.6885,-0.6887,-0.689,-0.6905,-0.6916,-0.6918,-0.6924,-0.6924,-0.6927,-0.6934,-0.6936,-0.6958,-0.6955,-0.6957,-0.6962,-0.6983,-0.6984,-0.6984,-0.6982,-0.6983,-0.6984,0,0,0,0,0,0,-0.6874,-0.6887,-0.6889,-0.6898,-0.6906,-0.6917,-0.6922,-0.6925,-0.6933,-0.6933,-0.694,-0.6943,-0.6953,-0.6959,-0.6954,-0.6973,-0.6971,-0.6972,-0.6969,-0.6969,-0.697,-0.6968,-0.6956,0,0,0,0,0,-0.6874,-0.6881,-0.6892,-0.6899,-0.6903,-0.6912,-0.6917,-0.6921,-0.693,-0.6933,-0.694,-0.6949,-0.6958,-0.6964,-0.6973,-0.6984,-0.6987,-0.6988,-0.6989,-0.6989,-0.699,-0.6998,-0.7,-0.6987,-0.6987,-0.6987,0,0,-0.6873,-0.6881,-0.6885,-0.6898,-0.6905,-0.6913,-0.6914,-0.6923,-0.6929,-0.6934,-0.6945,-0.6951,-0.6961,-0.6973,-0.6978,-0.6978,-0.6995,-0.699,-0.699,-0.6991,-0.6999,-0.7,-0.7001,-0.6987,-0.6987,-0.6987,0,0,-0.6877,-0.6883,-0.6891,-0.6898,-0.6908,-0.6914,-0.6916,-0.6927,-0.6932,-0.6943,-0.6947,-0.6956,-0.6971,-0.6978,-0.6984,-0.6993,-0.6996,-0.6996,-0.6999,-0.7007,-0.7008,-0.7009,-0.7013,-0.7015,-0.6997,-0.6997,-0.6997,0,-0.6875,-0.6887,-0.6894,-0.6903,-0.6909,-0.6914,-0.6923,-0.6929,-0.6942,-0.6947,-0.6946,-0.6967,-0.6974,-0.6988,-0.6991,-0.6995,-0.6998,-0.6995,-0.7007,-0.7008,-0.7009,-0.7014,-0.7015,-0.6997,-0.6997,-0.6997,-0.6997,0,-0.6885,-0.6894,-0.6899,-0.6912,-0.6919,-0.6927,-0.6936,-0.6942,-0.6946,-0.6953,-0.6965,-0.6974,-0.6986,-0.699,-0.6993,-0.7005,-0.7005,-0.7005,-0.7004,-0.701,-0.7015,-0.7016,-0.6997,-0.6997,-0.6997,-0.6997,0,0,-0.6885,-0.6903,-0.6904,-0.6911,-0.6924,-0.6931,-0.6941,-0.6953,-0.6959,-0.6968,-0.6977,-0.6991,-0.6992,-0.6999,-0.7004,-0.701,-0.7019,-0.7011,-0.7011,-0.7013,-0.7035,-0.7035,-0.7037,-0.7021,-0.7022,-0.7022,-0.7035,0,-0.6891,-0.6907,-0.6915,-0.6929,-0.6938,-0.6944,-0.6953,-0.6962,-0.6969,-0.6979,-0.6986,-0.6996,-0.6997,-0.7001,-0.7008,-0.7017,-0.7024,-0.7016,-0.7031,-0.7031,-0.7029,-0.7039,-0.7038,-0.705,-0.7036,-0.7037,-0.7037,0,-0.6899,-0.691,-0.6925,-0.6939,-0.6943,-0.695,-0.6963,-0.6971,-0.6983,-0.6988,-0.6996,-0.7001,-0.7013,-0.7011,-0.7028,-0.7022,-0.7029,-0.7035,-0.7035,-0.7037,-0.7035,-0.7042,-0.7053,-0.7055,-0.7039,-0.7039,-0.7039,0,-0.6899,-0.6916,-0.6928,-0.6934,-0.695,-0.6955,-0.6962,-0.6974,-0.6981,-0.6992,-0.6998,-0.701,-0.7017,-0.7027,-0.7036,-0.7033,-0.7052,-0.7051,-0.7058,-0.7058,-0.7061,-0.7061,-0.7075,-0.7065,-0.7065,-0.7064,-0.7064,0,-0.6905,-0.6914,-0.6928,-0.6935,-0.6947,-0.6956,-0.6967,-0.6974,-0.6985,-0.6995,-0.7001,-0.701,-0.7021,-0.7032,-0.7039,-0.7053,-0.7056,-0.7061,-0.7063,-0.7061,-0.706,-0.7066,-0.7065,-0.7065,-0.7065,-0.7065,-0.7065,0,-0.6906,-0.6916,-0.6929,-0.6944,-0.6948,-0.6956,-0.6969,-0.6977,-0.6985,-0.6997,-0.7001,-0.7013,-0.7027,-0.7037,-0.7054,-0.7059,-0.7074,-0.7076,-0.707,-0.7071,-0.7078,-0.7078,-0.7096,-0.71,-0.7086,-0.7087,-0.7087,0,-0.691,-0.6917,-0.6933,-0.694,-0.6948,-0.6959,-0.6967,-0.6977,-0.6985,-0.7,-0.7007,-0.7021,-0.7032,-0.7054,-0.7065,-0.7079,-0.7081,-0.7087,-0.7083,-0.7082,-0.7083,-0.7083,-0.7084,-0.7087,-0.7087,-0.7087,-0.7088,0,-0.6915,-0.692,-0.6931,-0.6945,-0.6954,-0.6965,-0.6976,-0.6982,-0.6994,-0.7003,-0.7018,-0.7027,-0.7045,-0.706,-0.7075,-0.7083,-0.7088,-0.7089,-0.7091,-0.7089,-0.7087,-0.709,-0.7073,-0.7088,-0.7088,-0.7088,-0.7088,-0.7088,-0.6919,-0.6926,-0.6939,-0.6952,-0.6962,-0.6973,-0.6982,-0.6991,-0.7003,-0.7019,-0.7025,-0.704,-0.7054,-0.7075,-0.7083,-0.7096,-0.7096,-0.7099,-0.71,-0.7101,-0.7102,-0.7084,-0.7099,-0.7099,-0.7099,-0.7099,-0.7099,0,-0.6926,-0.6935,-0.6947,-0.6963,-0.6973,-0.6977,-0.699,-0.6999,-0.7012,-0.7025,-0.7037,-0.7054,-0.7069,-0.7082,-0.7097,-0.7105,-0.7108,-0.7109,-0.7109,-0.7111,-0.71,-0.7097,-0.7107,-0.7107,-0.7107,-0.7107,-0.7107,-0.7107,-0.693,-0.6944,-0.6951,-0.6971,-0.698,-0.6995,-0.7003,-0.7013,-0.7024,-0.7043,-0.7055,-0.7064,-0.7077,-0.7094,-0.7108,-0.7112,-0.7118,-0.7119,-0.7123,-0.7113,-0.7112,-0.7111,-0.7108,-0.712,-0.712,-0.7133,-0.7133,-0.7133]}]]